Ankeny, IA

6:36 PM CST on January 24, 2017 (GMT -0600)
Ankeny Regional

Weather History for KIKV - June, 2013

Change the Weather History Date:

Thursday, June 6, 2013

  Actual Average (KDSM) Record (KDSM)
Temperature  
Mean Temperature 60 °F -  
Max Temperature 69 °F 80 °F 103 °F (1933)
Min Temperature 51 °F 59 °F 43 °F (1894)
Degree Days  
Heating Degree Days 5    
Growing Degree Days 10 (Base 50)    
Moisture  
Dew Point 53 °F    
Average Humidity 76    
Maximum Humidity 100    
Minimum Humidity 56    
Precipitation  
Precipitation 0.00 in - - ()
Sea Level Pressure  
Sea Level Pressure 29.94 in    
Wind  
Wind Speed 7 mph (NNW)    
Max Wind Speed 17 mph    
Max Gust Speed 22 mph    
Visibility 10 miles    
Events      
Averages and records for this station are not official NWS values.
T = Trace of Precipitation, MM = Missing Value Source: NWS Daily Summary

Daily Weather History Graph

Daily Weather History Graph

Search for Another Location

Airport or City:

Trip Planner

Search our weather history database for the weather conditions in past years. The results will help you decide how hot, cold, wet, or windy it might be!

Date:

Astronomy

Jun. 06, 2013 Rise Set
Actual Time 5:40 AM CDT 8:46 PM CDT
Civil Twilight 5:06 AM CDT 9:19 PM CDT
Nautical Twilight 4:23 AM CDT 10:03 PM CDT
Astronomical Twilight 3:32 AM CDT 10:54 PM CDT
Moon 4:23 AM CDT (6/6) 7:07 PM CDT (6/6)
Length of Visible Light 16h 13m
Length of Day
15h 05m
Waning Crescent, 3% of the Moon is Illuminated
Jun 6
Waning Crescent
Jun 8
New
Jun 16
First Quarter
Jun 23
Full
Jun 29
Last Quarter

Hourly Weather History & Observations

Time (CDT) Temp. Dew Point Humidity Pressure Visibility Wind Dir Wind Speed Gust Speed Precip Events Conditions
12:15 AM 57.2 °F 53.6 °F 88% 29.97 in 10.0 mi West 5.8 mph - N/A   Clear
12:35 AM 57.2 °F 53.6 °F 88% 29.96 in 10.0 mi West 5.8 mph - N/A   Clear
12:55 AM 55.4 °F 53.6 °F 94% 29.96 in 10.0 mi West 6.9 mph - N/A   Clear
1:15 AM 55.4 °F 53.6 °F 94% 29.95 in 10.0 mi West 4.6 mph - N/A   Clear
1:35 AM 53.6 °F 51.8 °F 94% 29.95 in 10.0 mi West 5.8 mph - N/A   Clear
1:55 AM 55.4 °F 53.6 °F 94% 29.94 in 10.0 mi West 6.9 mph - N/A   Clear
2:15 AM 53.6 °F 51.8 °F 94% 29.94 in 10.0 mi West 5.8 mph - N/A   Clear
2:35 AM 53.6 °F 51.8 °F 94% 29.93 in 10.0 mi WNW 6.9 mph - N/A   Clear
2:55 AM 53.6 °F 51.8 °F 94% 29.93 in 10.0 mi West 4.6 mph - N/A   Clear
3:15 AM 51.8 °F 51.8 °F 100% 29.92 in 10.0 mi Calm Calm - N/A   Clear
3:35 AM 51.8 °F 51.8 °F 100% 29.92 in 10.0 mi West 5.8 mph - N/A   Clear
3:55 AM 53.6 °F 51.8 °F 94% 29.91 in 10.0 mi West 5.8 mph - N/A   Clear
4:15 AM 53.6 °F 51.8 °F 94% 29.91 in 10.0 mi West 6.9 mph - N/A   Clear
4:35 AM 53.6 °F 51.8 °F 94% 29.91 in 10.0 mi WNW 6.9 mph - N/A   Partly Cloudy
4:55 AM 53.6 °F 51.8 °F 94% 29.91 in 10.0 mi WNW 4.6 mph - N/A   Mostly Cloudy
5:15 AM 55.4 °F 51.8 °F 88% 29.91 in 10.0 mi WNW 4.6 mph - N/A   Overcast
5:35 AM 53.6 °F 51.8 °F 94% 29.91 in 10.0 mi Calm Calm - N/A   Overcast
5:55 AM 57.2 °F 53.6 °F 88% 29.92 in 10.0 mi West 5.8 mph - N/A   Overcast
6:15 AM 57.2 °F 53.6 °F 88% 29.91 in 10.0 mi WNW 5.8 mph - N/A   Overcast
6:35 AM 57.2 °F 53.6 °F 88% 29.92 in 10.0 mi Calm Calm - N/A   Overcast
6:55 AM 57.2 °F 53.6 °F 88% 29.93 in 10.0 mi West 5.8 mph - N/A   Overcast
7:15 AM 57.2 °F 55.4 °F 94% 29.93 in 10.0 mi Calm Calm - N/A   Overcast
7:35 AM 59.0 °F 55.4 °F 88% 29.93 in 10.0 mi NW 3.5 mph - N/A   Overcast
7:55 AM 59.0 °F 55.4 °F 88% 29.94 in 10.0 mi NW 8.1 mph - N/A   Overcast
8:15 AM 59.0 °F 55.4 °F 88% 29.94 in 10.0 mi NNW 6.9 mph 13.8 mph N/A   Overcast
8:35 AM 60.8 °F 55.4 °F 82% 29.94 in 10.0 mi NNW 9.2 mph - N/A   Overcast
8:55 AM 60.8 °F 55.4 °F 82% 29.95 in 10.0 mi North 6.9 mph 12.7 mph N/A   Overcast
9:15 AM 62.6 °F 57.2 °F 82% 29.95 in 10.0 mi North 8.1 mph - N/A   Overcast
9:35 AM 62.6 °F 55.4 °F 77% 29.95 in 10.0 mi North 9.2 mph - N/A   Overcast
9:55 AM 64.4 °F 55.4 °F 73% 29.95 in 10.0 mi North 8.1 mph - N/A   Overcast
10:15 AM 64.4 °F 55.4 °F 73% 29.95 in 10.0 mi North 9.2 mph - N/A   Mostly Cloudy
10:35 AM 64.4 °F 55.4 °F 73% 29.95 in 10.0 mi North 9.2 mph 16.1 mph N/A   Scattered Clouds
10:55 AM 66.2 °F 55.4 °F 68% 29.94 in 10.0 mi North 10.4 mph - N/A   Mostly Cloudy
11:15 AM 66.2 °F 55.4 °F 68% 29.94 in 10.0 mi North 12.7 mph - N/A   Mostly Cloudy
11:35 AM 68.0 °F 55.4 °F 64% 29.94 in 10.0 mi North 10.4 mph - N/A   Scattered Clouds
11:55 AM 68.0 °F 53.6 °F 60% 29.94 in 10.0 mi North 11.5 mph - N/A   Mostly Cloudy
12:15 PM 68.0 °F 53.6 °F 60% 29.94 in 10.0 mi NNW 11.5 mph 17.3 mph N/A   Mostly Cloudy
12:35 PM 68.0 °F 53.6 °F 60% 29.94 in 10.0 mi North 13.8 mph 20.7 mph N/A   Scattered Clouds
12:55 PM 68.0 °F 53.6 °F 60% 29.93 in 10.0 mi North 11.5 mph 20.7 mph N/A   Partly Cloudy
1:15 PM 68.0 °F 53.6 °F 60% 29.93 in 10.0 mi North 16.1 mph - N/A   Mostly Cloudy
1:35 PM 69.8 °F 53.6 °F 56% 29.93 in 10.0 mi NNW 13.8 mph 20.7 mph N/A   Mostly Cloudy
1:55 PM 68.0 °F 51.8 °F 56% 29.94 in 10.0 mi NNW 16.1 mph - N/A   Mostly Cloudy
2:15 PM 68.0 °F 53.6 °F 60% 29.94 in 10.0 mi North 11.5 mph 21.9 mph N/A   Overcast
2:35 PM 68.0 °F 53.6 °F 60% 29.95 in 10.0 mi North 16.1 mph - N/A   Mostly Cloudy
2:55 PM 68.0 °F 51.8 °F 56% 29.95 in 10.0 mi NNW 10.4 mph 16.1 mph N/A   Mostly Cloudy
3:15 PM 68.0 °F 51.8 °F 56% 29.95 in 10.0 mi North 10.4 mph 19.6 mph N/A   Overcast
3:35 PM 68.0 °F 51.8 °F 56% 29.95 in 10.0 mi NNW 15.0 mph - N/A   Overcast
3:55 PM 69.8 °F 53.6 °F 56% 29.95 in 10.0 mi North 17.3 mph - N/A   Overcast
4:15 PM 69.8 °F 53.6 °F 56% 29.95 in 10.0 mi North 13.8 mph - N/A   Overcast
4:35 PM 69.8 °F 53.6 °F 56% 29.94 in 10.0 mi NNE 13.8 mph 20.7 mph N/A   Scattered Clouds
4:55 PM 68.0 °F 51.8 °F 56% 29.95 in 10.0 mi NNE 10.4 mph 17.3 mph N/A   Partly Cloudy
5:15 PM 68.0 °F 53.6 °F 60% 29.95 in 10.0 mi NNE 8.1 mph - N/A   Mostly Cloudy
5:35 PM 66.2 °F 53.6 °F 64% 29.94 in 10.0 mi NNE 11.5 mph - N/A   Mostly Cloudy
5:55 PM 68.0 °F 53.6 °F 60% 29.94 in 10.0 mi North 11.5 mph - N/A   Mostly Cloudy
6:15 PM 66.2 °F 51.8 °F 60% 29.94 in 10.0 mi North 11.5 mph - N/A   Partly Cloudy
6:35 PM 66.2 °F 51.8 °F 60% 29.94 in 10.0 mi North 9.2 mph - N/A   Partly Cloudy
6:55 PM 66.2 °F 51.8 °F 60% 29.94 in 10.0 mi North 10.4 mph 17.3 mph N/A   Partly Cloudy
7:15 PM 66.2 °F 51.8 °F 60% 29.94 in 10.0 mi North 11.5 mph 17.3 mph N/A   Partly Cloudy
7:35 PM 64.4 °F 51.8 °F 64% 29.94 in 10.0 mi North 9.2 mph 16.1 mph N/A   Clear
7:55 PM 64.4 °F 51.8 °F 64% 29.94 in 10.0 mi North 6.9 mph 15.0 mph N/A   Clear
8:15 PM 62.6 °F 51.8 °F 68% 29.95 in 10.0 mi North 4.6 mph - N/A   Clear
8:35 PM 62.6 °F 51.8 °F 68% 29.95 in 10.0 mi North 4.6 mph 11.5 mph N/A   Clear
8:55 PM 62.6 °F 50.0 °F 63% 29.95 in 10.0 mi North 8.1 mph - N/A   Clear
9:15 PM 60.8 °F 51.8 °F 72% 29.96 in 10.0 mi North 8.1 mph - N/A   Clear
9:35 PM 59.0 °F 51.8 °F 77% 29.97 in 10.0 mi North 5.8 mph - N/A   Clear
9:55 PM 59.0 °F 51.8 °F 77% 29.97 in 10.0 mi North 5.8 mph - N/A   Clear
10:15 PM 57.2 °F 51.8 °F 82% 29.98 in 10.0 mi North 5.8 mph - N/A   Clear
10:35 PM 57.2 °F 51.8 °F 82% 29.98 in 10.0 mi North 5.8 mph - N/A   Clear
10:55 PM 55.4 °F 51.8 °F 88% 29.98 in 10.0 mi North 5.8 mph - N/A   Clear
11:15 PM 55.4 °F 51.8 °F 88% 29.98 in 10.0 mi North 5.8 mph - N/A   Clear
11:35 PM 57.2 °F 51.8 °F 82% 29.98 in 10.0 mi North 5.8 mph - N/A   Clear
11:55 PM 55.4 °F 51.8 °F 88% 29.99 in 10.0 mi North 3.5 mph - N/A   Clear